sat.trackr.live / text

‹ back to catalog

STARLINK-31338

NORAD 59156 · 2024-044E

PAYLOAD ACTIVE UNKNOWN

§ Identity

Operator
Country
US
Launch date
2024-03-04
Launch site
AFETR
Launch vehicle
Mass (kg)
RCS (m²)

Purposes: comms

External: N2YO · Heavens-Above · Gunter

§ Orbital elements

Epoch: 2026-05-25T03:07:09.446016Z

Period
94.27 min
Inclination
42.9992°
Eccentricity
0.0000680
Mean motion
15.27582598 rev/d
Perigee alt
482.6 km
Apogee alt
483.5 km
Semi-major
6,861.2 km
B*
2.7113e-5
RAAN
38.9923°
Arg perigee
244.3392°
Mean anomaly
115.7389°
Rev number
12,521

§ Raw data

STARLINK-313381 59156U 24044E   26145.12997044  .00000484  00000+0  27113-4 0  99972 59156  42.9992  38.9923 0000680 244.3392 115.7389 15.27582598125215

JSON: /api/v1/satellites/59156 · /tle

For live sub-satellite position, see the globe view (requires WebGL).

§ Visibility from observer

Set your observer location to see the next 7 days of passes ≥ 10°. The values pass through the URL so the page stays shareable.

No JS? Fill the form by hand. The geolocation button needs JavaScript.